Location: Boulder, CO
(40.0083°N, 105.2472°W)
Time: 06:16:00
(UTC-06:00)

SORCE - Visible Passes

Search period start: 25 June 2016 00:00
Search period end: 05 July 2016 00:00
Orbit: 586 x 619 km, 40.0° (Epoch: 24 June)

Date Brightness Start Highest point End Pass type
(mag) Time Alt. Az. Time Alt. Az. Time Alt. Az.
25 Jun 7.4 00:15:40 10° W 00:18:04 30° W 00:18:04 30° W visible
25 Jun 6.0 21:03:03 10° WSW 21:07:38 74° SSE 21:12:13 10° E visible
25 Jun 5.9 22:44:58 10° W 22:49:35 89° S 22:51:42 32° E visible
26 Jun 8.0 00:26:59 10° W 00:28:24 19° W 00:28:24 19° W visible
26 Jun 6.1 21:14:17 10° W 21:18:53 87° S 21:23:29 10° E visible
26 Jun 5.9 22:56:15 10° W 23:00:51 79° S 23:02:01 49° ESE visible
27 Jun 8.6 00:38:24 10° W 00:38:42 12° W 00:38:42 12° W visible
27 Jun 6.1 21:25:33 10° W 21:30:10 88° N 21:34:46 10° E visible
27 Jun 6.0 23:07:31 10° W 23:12:04 62° SSW 23:12:18 61° S visible
28 Jun 6.0 21:36:51 10° W 21:41:26 88° S 21:45:54 11° E visible
28 Jun 6.7 23:18:51 10° W 23:22:35 41° SW 23:22:35 41° SW visible
29 Jun 6.0 21:48:06 10° W 21:52:41 75° SSW 21:56:12 17° ESE visible
29 Jun 7.5 23:30:18 10° W 23:32:53 25° WSW 23:32:53 25° WSW visible
30 Jun 6.2 21:59:24 10° W 22:03:54 58° SSW 22:06:31 24° SE visible
30 Jun 8.3 23:42:04 10° WSW 23:43:13 14° WSW 23:43:13 14° WSW visible
01 Jul 6.7 22:10:44 10° W 22:15:02 40° SSW 22:16:52 27° SSE visible
02 Jul 7.3 22:22:14 10° W 22:26:06 27° SSW 22:27:15 24° S visible
03 Jul 7.9 22:34:08 10° WSW 22:37:04 17° SW 22:37:41 16° SSW visible
04 Jul 7.0 21:02:38 10° W 21:06:51 37° SSW 21:11:03 10° SE visible
